Simultaneous Nadir Overpasses (SNOs) Predictions

Prediction of SNOs between NOAA-20 and METOP-C Satellite Orbit:

Table of predicted SNOs for the next 14.0 days since TLE Epoch: 8/6/2022
Index Date (NOAA-20) Time (NOAA-20) Lat,Lon (NOAA-20) SZA (NOAA-20 ) Date (METOP-C) Time (METOP-C) Lat,Lon (METOP-C) SZA (METOP-C ) Distance(km) Time Diff (sec)
1 08/15/2022 18:17:21 -73.57, 75.76 120.06 08/15/2022 18:18:27 -73.51, 78.89 120.30 98.83 66
2 08/15/2022 19:08:03 73.39,-116.50 59.74 08/15/2022 19:09:11 73.33,-114.18 59.56 74.08 68
3 08/15/2022 19:58:45 -73.28, 51.05 120.37 08/15/2022 19:59:54 -73.24, 52.94 120.52 60.88 69
4 08/15/2022 20:49:27 73.09,-141.23 59.44 08/15/2022 20:50:38 73.06,-140.12 59.33 35.99 71
5 08/15/2022 21:40:09 -72.99, 26.31 120.67 08/15/2022 21:41:22 -72.92, 26.91 120.79 20.91 73
6 08/15/2022 22:30:51 72.80,-165.97 59.14 08/15/2022 22:32:05 72.78,-166.04 59.11 2.77 74
7 08/15/2022 23:21:35 -72.80, 1.35 120.86 08/15/2022 23:22:46 -72.79, 1.31 120.87 1.29 71
8 08/16/2022 00:12:21 72.81, 168.63 59.17 08/16/2022 00:13:26 72.81, 168.67 59.16 1.48 65
9 08/16/2022 01:03:05 -72.80, -24.05 120.83 08/16/2022 01:04:07 -72.82, -23.98 120.83 3.05 62
10 08/16/2022 01:53:51 72.81, 143.24 59.20 08/16/2022 01:54:48 72.79, 143.29 59.16 3.28 57
11 08/16/2022 02:44:35 -72.81, -49.44 120.80 08/16/2022 02:45:29 -72.80, -49.36 120.83 2.92 54
12 08/16/2022 03:35:20 72.77, 117.95 59.18 08/16/2022 03:36:10 72.77, 117.90 59.16 1.95 50
13 08/16/2022 04:26:04 -72.77, -74.72 120.82 08/16/2022 04:26:51 -72.78, -74.75 120.82 1.02 47
14 08/16/2022 05:16:50 72.78, 92.56 59.21 08/16/2022 05:17:31 72.79, 92.62 59.21 2.32 41
15 08/16/2022 06:07:34 -72.78,-100.12 120.79 08/16/2022 06:08:13 -72.75,-100.14 120.82 2.91 39
16 08/16/2022 06:58:20 72.79, 67.17 59.24 08/16/2022 06:58:53 72.77, 67.23 59.21 2.88 33
17 08/16/2022 07:49:04 -72.79,-125.51 120.76 08/16/2022 07:49:34 -72.78,-125.42 120.78 3.05 30
18 08/16/2022 08:39:49 72.75, 41.88 59.21 08/16/2022 08:40:15 72.75, 41.84 59.21 1.31 26
19 08/16/2022 09:30:33 -72.75,-150.80 120.78 08/16/2022 09:30:56 -72.76,-150.81 120.77 1.51 23
20 08/16/2022 10:21:19 72.76, 16.49 59.25 08/16/2022 10:21:36 72.78, 16.56 59.26 3.23 17
21 08/16/2022 11:12:03 -72.75,-176.19 120.75 08/16/2022 11:12:18 -72.74,-176.19 120.77 2.01 15
22 08/16/2022 12:02:49 72.76, -8.90 59.28 08/16/2022 12:02:58 72.75, -8.82 59.26 2.77 9
23 08/16/2022 12:53:32 -72.71, 158.53 120.77 08/16/2022 12:53:40 -72.71, 158.42 120.77 3.45 8
24 08/16/2022 13:44:18 72.72, -34.19 59.25 08/16/2022 13:44:20 72.73, -34.21 59.26 1.23 2
25 08/16/2022 14:35:02 -72.72, 133.13 120.74 08/16/2022 14:35:01 -72.74, 133.14 120.72 2.31 1
26 08/16/2022 15:25:48 72.73, -59.58 59.28 08/16/2022 15:25:42 72.71, -59.60 59.26 2.65 6
27 08/16/2022 16:16:32 -72.73, 107.74 120.71 08/16/2022 16:16:23 -72.72, 107.75 120.72 1.22 9
28 08/16/2022 17:07:18 72.74, -84.97 59.32 08/16/2022 17:07:03 72.74, -84.88 59.31 3.00 15
29 08/16/2022 17:58:01 -72.69, 82.45 120.74 08/16/2022 17:57:45 -72.70, 82.37 120.72 3.11 16
30 08/16/2022 18:48:47 72.70,-110.26 59.29 08/16/2022 18:48:25 72.71,-110.27 59.31 1.79 22
31 08/16/2022 19:39:31 -72.69, 57.06 120.70 08/16/2022 19:39:06 -72.72, 57.08 120.67 3.21 25
32 08/16/2022 20:30:17 72.71,-135.65 59.32 08/16/2022 20:29:47 72.69,-135.65 59.31 1.74 30
33 08/16/2022 21:21:01 -72.70, 31.67 120.67 08/16/2022 21:20:28 -72.70, 31.70 120.67 0.89 33
34 08/16/2022 22:11:46 72.66,-160.94 59.30 08/16/2022 22:11:09 72.67,-161.04 59.32 3.46 37
35 08/16/2022 23:02:30 -72.66, 6.38 120.70 08/16/2022 23:01:50 -72.68, 6.31 120.67 3.04 40
36 08/16/2022 23:53:16 72.67, 173.67 59.33 08/16/2022 23:52:30 72.70, 173.68 59.36 2.60 46
37 08/17/2022 00:43:59 -72.67, -19.01 120.66 08/17/2022 00:43:11 -72.65, -19.08 120.67 2.82 48
38 08/17/2022 01:34:45 72.68, 148.28 59.36 08/17/2022 01:33:51 72.67, 148.29 59.37 0.98 54
39 08/17/2022 02:25:29 -72.68, -44.40 120.63 08/17/2022 02:24:32 -72.68, -44.36 120.62 1.42 57
40 08/17/2022 03:16:14 72.64, 122.99 59.34 08/17/2022 03:15:13 72.65, 122.90 59.37 3.17 61
41 08/17/2022 04:06:58 -72.64, -69.69 120.66 08/17/2022 04:05:54 -72.66, -69.75 120.62 3.27 64
42 08/17/2022 04:57:44 72.65, 97.60 59.37 08/17/2022 04:56:34 72.68, 97.62 59.41 3.49 70
43 08/17/2022 05:48:28 -72.64, -95.08 120.63 08/17/2022 05:47:16 -72.64, -95.13 120.61 1.95 72
44 08/17/2022 06:39:12 72.55, 72.42 59.29 08/17/2022 06:37:58 72.55, 72.03 59.33 12.91 74
45 08/17/2022 07:29:54 -72.45,-120.06 120.82 08/17/2022 07:28:41 -72.46,-120.82 120.75 25.66 73
46 08/17/2022 08:20:36 72.26, 47.63 58.99 08/17/2022 08:19:26 72.22, 46.04 59.06 54.25 70
47 08/17/2022 09:11:18 -72.15,-144.85 121.12 08/17/2022 09:10:09 -72.13,-146.81 121.01 66.73 69
48 08/17/2022 10:01:59 71.90, 22.93 58.63 08/17/2022 10:00:53 71.94, 20.17 58.84 95.45 66



Historial Predications of SNOs between NOAA-20 and METOP-C
